Location: *
(33.3200°N, 8.3381°W)
Time: 12:59:46
(UTC+00:00)

GPS 2-04 Rocket1 - Pass Details

Date: 09 April 2020
Orbit: 419 x 548 km, 35.6° (Epoch: 05 June)

Event Time Altitude Azimuth Distance (km) Brightness Sun altitude
Rises 19:52:44 0° 234° (SW) 2,579 6.8 -11.5°
Reaches altitude 10° 19:54:58 10° 227° (SW) 1,720 5.7 -12.0°
Maximum altitude 19:58:44 42° 156° (SSE) 751 3.2 -12.7°
Enters shadow 20:01:05 21° 95° (E) 1,233 4.0 -13.2°
